Location: Harwich
(41.7160°N, 69.9939°W)
Time: 13:09:50
(UTC+02:00)

TIGRISAT - Visible Passes

Search period start: 17 September 2024 00:00
Search period end: 27 September 2024 00:00
Orbit: 591 x 668 km, 97.7° (Epoch: 16 September)

Date Brightness Start Highest point End Pass type
(mag) Time Alt. Az. Time Alt. Az. Time Alt. Az.
17 Sep ? 10:04:24 20° SE 10:07:06 54° ENE 10:11:16 10° N visible
17 Sep ? 11:42:00 10° WSW 11:43:48 12° W 11:45:36 10° WNW visible
18 Sep ? 10:25:04 28° SSE 10:27:15 87° WSW 10:31:32 10° NNW visible
19 Sep ? 09:09:13 10° E 09:11:35 15° ENE 09:13:57 10° NNE visible
19 Sep ? 10:45:43 30° SSW 10:47:27 51° W 10:51:37 10° NNW visible
20 Sep ? 09:28:58 14° ESE 09:31:31 23° ENE 09:34:55 10° NNE visible
20 Sep ? 11:06:21 25° SW 11:07:41 30° W 11:11:28 10° NW visible
21 Sep ? 09:49:36 24° ESE 09:51:31 37° ENE 09:55:29 10° N visible
21 Sep ? 11:26:59 17° WSW 11:27:59 18° W 11:31:00 10° NW visible
22 Sep ? 10:10:14 40° SE 10:11:34 63° ENE 10:15:51 10° N visible
22 Sep ? 11:47:36 11° W 11:48:20 11° W 11:49:34 10° WNW visible
23 Sep ? 08:55:15 10° ENE 08:56:02 10° ENE 08:56:50 10° NE visible
23 Sep ? 10:30:51 56° S 10:31:40 77° WSW 10:36:00 10° NNW visible
24 Sep ? 09:14:05 13° E 09:15:53 17° ENE 09:18:39 10° NNE visible
24 Sep ? 10:51:28 44° WSW 10:51:49 45° W 10:55:59 10° NNW visible
25 Sep ? 09:34:40 23° E 09:35:48 26° ENE 09:39:25 10° NNE visible
25 Sep ? 11:12:03 27° W 11:12:03 27° W 11:15:44 10° NW visible
26 Sep ? 09:55:16 40° E 09:55:45 42° ENE 09:59:53 10° N visible
26 Sep ? 11:32:39 17° W 11:32:39 17° W 11:35:06 10° NW visible
